Fort Morgan, CO

6:54 PM MST on January 19, 2017 (GMT -0700)
Fort Morgan

Weather History for KFMM - September, 2012

Change the Weather History Date:

Monday, September 24, 2012

  Actual Average (KAKO) Record (KAKO)
Temperature  
Mean Temperature 68 °F -  
Max Temperature 84 °F 74 °F 91 °F (1966)
Min Temperature 53 °F 45 °F 27 °F (1985)
Cooling Degree Days 4    
Growing Degree Days 18 (Base 50)    
Moisture  
Dew Point 38 °F    
Average Humidity 36    
Maximum Humidity 58    
Minimum Humidity 16    
Precipitation  
Precipitation 0.00 in - - ()
Sea Level Pressure  
Sea Level Pressure 30.02 in    
Wind  
Wind Speed 7 mph ()    
Max Wind Speed 21 mph    
Max Gust Speed 28 mph    
Visibility 10.0 miles    
Events      
Averages and records for this station are not official NWS values.
T = Trace of Precipitation, MM = Missing Value Source: Averaged Metar Reports

Daily Weather History Graph

Daily Weather History Graph

Search for Another Location

Airport or City:

Trip Planner

Search our weather history database for the weather conditions in past years. The results will help you decide how hot, cold, wet, or windy it might be!

Date:

Astronomy

Sep. 24, 2012 Rise Set
Actual Time 6:45 AM MDT 6:48 PM MDT
Civil Twilight 6:18 AM MDT 7:15 PM MDT
Nautical Twilight 5:46 AM MDT 7:46 PM MDT
Astronomical Twilight 5:14 AM MDT 8:18 PM MDT
Moon 3:36 PM MDT (9/24) 1:03 AM MDT (9/24)
Length of Visible Light 12h 57m
Length of Day
12h 02m
Waxing Gibbous, 71% of the Moon is Illuminated
Sep 24
Waxing Gibbous
Sep 29
Full
Oct 8
Last Quarter
Oct 15
New
Oct 21
First Quarter

Hourly Weather History & Observations

Time (MDT) Temp. Dew Point Humidity Pressure Visibility Wind Dir Wind Speed Gust Speed Precip Events Conditions
12:15 AM 64.0 °F 36.0 °F 35% 30.10 in 10.0 mi South 11.5 mph - N/A   Clear
12:35 AM 62.8 °F 36.1 °F 37% 30.09 in 10.0 mi South 9.2 mph - N/A   Clear
12:55 AM 61.2 °F 36.5 °F 40% 30.08 in 10.0 mi South 9.2 mph - N/A   Clear
1:35 AM 60.8 °F 36.9 °F 41% 30.08 in 10.0 mi SSW 6.9 mph - N/A   Scattered Clouds
1:55 AM 60.3 °F 37.4 °F 43% 30.08 in 10.0 mi SW 4.6 mph - N/A   Mostly Cloudy
2:15 AM 58.5 °F 37.4 °F 45% 30.07 in 10.0 mi Calm Calm - N/A   Scattered Clouds
2:35 AM 59.5 °F 37.8 °F 44% 30.06 in 10.0 mi WNW 3.5 mph - N/A   Clear
2:55 AM 57.6 °F 37.9 °F 48% 30.06 in 10.0 mi WNW 4.6 mph - N/A   Clear
3:15 AM 56.7 °F 38.3 °F 50% 30.05 in 10.0 mi North 3.5 mph - N/A   Clear
3:35 AM 56.8 °F 38.3 °F 50% 30.06 in 10.0 mi NNE 3.5 mph - N/A   Clear
3:55 AM 56.1 °F 38.3 °F 51% 30.06 in 10.0 mi Calm Calm - N/A   Clear
4:15 AM 54.9 °F 38.3 °F 54% 30.06 in 10.0 mi NE 3.5 mph - N/A   Clear
4:35 AM 57.0 °F 37.8 °F 49% 30.05 in 10.0 mi NE 4.6 mph - N/A   Clear
4:55 AM 53.6 °F 38.3 °F 56% 30.05 in 10.0 mi ENE 5.8 mph - N/A   Clear
5:15 AM 53.6 °F 38.8 °F 57% 30.05 in 10.0 mi East 3.5 mph - N/A   Scattered Clouds
5:35 AM 53.6 °F 39.2 °F 58% 30.05 in 10.0 mi NNE 6.9 mph - N/A   Scattered Clouds
5:55 AM 54.9 °F 38.8 °F 55% 30.05 in 10.0 mi NNW 3.5 mph - N/A   Scattered Clouds
6:15 AM 66.0 °F 37.9 °F 36% 30.04 in 10.0 mi NNW 18.4 mph 24.2 mph N/A   Mostly Cloudy
6:35 AM 59.2 °F 39.0 °F 47% 30.06 in 10.0 mi SSW 4.6 mph - N/A   Mostly Cloudy
6:55 AM 57.4 °F 39.4 °F 51% 30.06 in 10.0 mi South 8.1 mph - N/A   Mostly Cloudy
7:15 AM 63.5 °F 39.2 °F 41% 30.06 in 10.0 mi SSW 4.6 mph - N/A   Mostly Cloudy
7:35 AM 67.3 °F 38.3 °F 35% 30.06 in 10.0 mi SW 3.5 mph - N/A   Mostly Cloudy
7:55 AM 61.7 °F 39.7 °F 44% 30.06 in 10.0 mi Calm Calm - N/A   Mostly Cloudy
8:15 AM 61.2 °F 40.6 °F 47% 30.07 in 10.0 mi South 9.2 mph - N/A   Scattered Clouds
8:35 AM 64.4 °F 40.8 °F 42% 30.09 in 10.0 mi South 8.1 mph - N/A   Mostly Cloudy
8:55 AM 65.3 °F 42.1 °F 43% 30.09 in 10.0 mi SW 5.8 mph - N/A   Mostly Cloudy
9:15 AM 68.0 °F 41.2 °F 38% 30.10 in 10.0 mi SW 9.2 mph - N/A   Mostly Cloudy
9:35 AM 69.4 °F 41.4 °F 36% 30.10 in 10.0 mi SW 10.4 mph - N/A   Scattered Clouds
9:55 AM 70.0 °F 40.1 °F 34% 30.10 in 10.0 mi WSW 12.7 mph - N/A   Mostly Cloudy
10:15 AM 71.1 °F 40.1 °F 32% 30.09 in 10.0 mi WSW 11.5 mph - N/A   Mostly Cloudy
10:35 AM 72.5 °F 39.9 °F 31% 30.09 in 10.0 mi West 10.4 mph - N/A   Scattered Clouds
10:55 AM 75.9 °F 39.6 °F 27% 30.09 in 10.0 mi West 11.5 mph 17.3 mph N/A   Clear
11:35 AM 76.3 °F 39.6 °F 27% 30.07 in 10.0 mi West 13.8 mph 19.6 mph N/A   Clear
11:55 AM 78.3 °F 39.4 °F 25% 30.06 in 10.0 mi West 10.4 mph - N/A   Clear
12:15 PM 79.9 °F 38.7 °F 23% 30.05 in 10.0 mi West 9.2 mph - N/A   Clear
12:35 PM 80.2 °F 37.8 °F 22% 30.04 in 10.0 mi West 11.5 mph 17.3 mph N/A   Clear
1:15 PM 82.2 °F 36.5 °F 19% 30.01 in 10.0 mi WNW 11.5 mph 19.6 mph N/A   Clear
1:35 PM 81.9 °F 34.7 °F 18% 30.00 in 10.0 mi NW 10.4 mph 20.7 mph N/A   Clear
1:55 PM 82.4 °F 35.8 °F 19% 29.99 in 10.0 mi WNW 8.1 mph - N/A   Clear
2:15 PM 84.4 °F 34.5 °F 17% 29.97 in 10.0 mi WNW 11.5 mph 16.1 mph N/A   Scattered Clouds
2:35 PM 83.3 °F 34.7 °F 17% 29.97 in 10.0 mi North 5.8 mph - N/A   Scattered Clouds
2:55 PM 82.2 °F 33.8 °F 17% 29.97 in 10.0 mi WSW 9.2 mph - N/A   Clear
3:15 PM 84.0 °F 33.4 °F 16% 29.96 in 10.0 mi WSW 10.4 mph 16.1 mph N/A   Clear
3:35 PM 81.1 °F 34.5 °F 19% 29.96 in 10.0 mi WSW 8.1 mph 16.1 mph N/A   Scattered Clouds
3:55 PM 81.1 °F 34.2 °F 18% 29.95 in 10.0 mi West 5.8 mph - N/A   Clear
4:15 PM 81.7 °F 33.6 °F 18% 29.95 in 10.0 mi NW 3.5 mph - N/A   Clear
4:35 PM 80.8 °F 34.2 °F 19% 29.95 in 10.0 mi North 4.6 mph - N/A   Clear
4:55 PM 79.9 °F 34.7 °F 20% 29.95 in 10.0 mi Calm Calm - N/A   Clear
5:15 PM 79.7 °F 35.6 °F 20% 29.95 in 10.0 mi NNW 3.5 mph - N/A   Clear
5:35 PM 80.1 °F 35.4 °F 20% 29.95 in 10.0 mi NNE 6.9 mph - N/A   Clear
5:55 PM 79.5 °F 35.1 °F 20% 29.95 in 10.0 mi NE 4.6 mph - N/A   Clear
6:15 PM 74.7 °F 35.1 °F 24% 29.95 in 10.0 mi North 8.1 mph - N/A   Clear
6:55 PM 67.8 °F 38.3 °F 34% 29.95 in 10.0 mi ENE 5.8 mph - N/A   Clear
7:15 PM 67.6 °F 38.7 °F 35% 29.95 in 10.0 mi ENE 5.8 mph - N/A   Clear
7:35 PM 67.1 °F 39.2 °F 36% 29.95 in 10.0 mi ENE 5.8 mph - N/A   Mostly Cloudy
7:55 PM 67.8 °F 39.2 °F 35% 29.96 in 10.0 mi ENE 5.8 mph - N/A   Overcast
8:15 PM 68.5 °F 38.8 °F 34% 29.96 in 10.0 mi ESE 5.8 mph - N/A   Overcast
8:35 PM 67.1 °F 39.4 °F 36% 29.96 in 10.0 mi NE 3.5 mph - N/A   Overcast
8:55 PM 67.3 °F 39.4 °F 36% 29.97 in 10.0 mi North 9.2 mph - N/A   Overcast
9:15 PM 66.7 °F 39.9 °F 37% 29.98 in 10.0 mi NW 6.9 mph - N/A   Mostly Cloudy
9:35 PM 70.7 °F 38.1 °F 30% 29.99 in 10.0 mi NW 6.9 mph - N/A   Overcast
9:55 PM 69.1 °F 38.7 °F 33% 30.00 in 10.0 mi NNW 5.8 mph - N/A   Mostly Cloudy
10:55 PM 63.9 °F 46.4 °F 53% 30.00 in 10.0 mi NNW 16.1 mph - N/A   Mostly Cloudy
11:15 PM 63.7 °F 45.9 °F 52% 29.99 in 10.0 mi NNW 20.7 mph 27.6 mph N/A   Scattered Clouds
11:35 PM 62.8 °F 46.4 °F 55% 29.98 in 10.0 mi North 16.1 mph - N/A   Clear
11:55 PM 61.7 °F 46.6 °F 58% 29.98 in 10.0 mi North 12.7 mph - N/A   Clear